Вернуться в каталог

STARLINK-31085

АктивенСвязьVLEO
NORAD 58609·PAYLOAD·🇺🇸 United States

Запущен Dec 19, 2023 с Cape Canaveral Space Force Station

Loading…

Ближайшие Пролёты (ближайшие 24 часа)

TLE

СвежийSource: CelesTrak SupGP

Эпоха: Sep 15, 2026, 01:57 UTC

1 58609C 23200W   26258.08173611  .00014541  00000+0  52674-3 0  2584
2 58609  42.9991 179.3756 0001395 272.4087 119.8420 15.27568026    18

Отслеживайте STARLINK-31085 в реальном времени с AllMySat

Download on the App Store